Time,TemperatureF,DewpointF,PressureIn,WindDirection,WindDirectionDegrees,WindSpeedMPH,WindSpeedGustMPH,Humidity,HourlyPrecipIn,Conditions,Clouds,dailyrainin,SoftwareType,DateUTC
2013-08-29 00:01:00,73.0,53.8,30.12,West,272,0.0,0.0,57,0.00,,,0.00,meteohub,2013-08-29 04:01:00,
2013-08-29 00:02:00,72.9,53.6,30.12,West,272,0.0,0.0,57,0.00,,,0.00,meteohub,2013-08-29 04:02:00,
2013-08-29 00:03:00,72.9,53.6,30.12,West,272,0.0,0.0,57,0.00,,,0.00,meteohub,2013-08-29 04:03:00,
2013-08-29 00:08:00,72.9,53.6,30.12,West,272,0.0,0.0,57,0.00,,,0.00,meteohub,2013-08-29 04:08:00,
2013-08-29 00:13:00,72.7,54.0,30.12,West,272,0.0,0.0,58,0.00,,,0.00,meteohub,2013-08-29 04:13:00,
2013-08-29 00:18:00,72.5,54.0,30.12,West,272,0.0,0.0,58,0.00,,,0.00,meteohub,2013-08-29 04:18:00,
2013-08-29 00:23:00,72.3,53.8,30.12,West,272,0.0,0.0,58,0.00,,,0.00,meteohub,2013-08-29 04:23:00,
2013-08-29 00:28:00,72.1,54.1,30.12,West,272,0.0,0.0,59,0.00,,,0.00,meteohub,2013-08-29 04:28:00,
2013-08-29 00:33:00,72.0,54.0,30.12,West,272,0.0,0.0,59,0.00,,,0.00,meteohub,2013-08-29 04:33:00,
2013-08-29 00:38:00,72.0,54.3,30.12,West,272,0.0,0.0,60,0.00,,,0.00,meteohub,2013-08-29 04:38:00,
2013-08-29 00:43:00,71.8,54.3,30.12,West,271,0.0,0.0,60,0.00,,,0.00,meteohub,2013-08-29 04:43:00,
2013-08-29 00:48:00,71.8,54.7,30.12,West,272,0.0,0.0,61,0.00,,,0.00,meteohub,2013-08-29 04:48:00,
2013-08-29 00:53:00,71.8,54.7,30.12,West,272,0.0,0.0,61,0.00,,,0.00,meteohub,2013-08-29 04:53:00,
2013-08-29 00:58:00,71.8,55.2,30.12,West,271,0.0,0.0,62,0.00,,,0.00,meteohub,2013-08-29 04:58:00,
2013-08-29 01:03:00,71.8,55.2,30.12,West,272,0.0,0.0,62,0.00,,,0.00,meteohub,2013-08-29 05:03:00,
2013-08-29 01:08:00,71.6,55.6,30.12,West,272,0.0,0.0,63,0.00,,,0.00,meteohub,2013-08-29 05:08:00,
2013-08-29 01:13:00,71.6,55.6,30.09,West,272,0.0,0.0,63,0.00,,,0.00,meteohub,2013-08-29 05:13:00,
2013-08-29 01:18:00,71.6,56.1,30.09,West,272,0.0,0.0,64,0.00,,,0.00,meteohub,2013-08-29 05:18:00,
2013-08-29 01:23:00,71.6,56.5,30.09,West,272,0.0,0.0,65,0.00,,,0.00,meteohub,2013-08-29 05:23:00,
2013-08-29 01:28:00,71.4,56.3,30.09,West,272,0.0,0.0,65,0.00,,,0.00,meteohub,2013-08-29 05:28:00,
2013-08-29 01:33:00,71.4,56.8,30.09,West,272,0.0,0.0,66,0.00,,,0.00,meteohub,2013-08-29 05:33:00,
2013-08-29 01:38:00,71.2,57.0,30.09,West,272,0.0,0.0,67,0.00,,,0.00,meteohub,2013-08-29 05:38:00,
2013-08-29 01:43:00,71.2,57.6,30.09,West,272,0.0,0.0,68,0.00,,,0.00,meteohub,2013-08-29 05:43:00,
2013-08-29 01:48:00,71.4,57.7,30.09,WSW,244,3.0,0.0,68,0.00,,,0.00,meteohub,2013-08-29 05:48:00,
2013-08-29 01:53:00,71.4,57.7,30.09,WSW,244,3.0,0.0,68,0.00,,,0.00,meteohub,2013-08-29 05:53:00,
2013-08-29 01:58:00,71.4,58.1,30.09,WSW,244,0.0,3.0,69,0.00,,,0.00,meteohub,2013-08-29 05:58:00,
2013-08-29 02:04:00,71.4,58.1,30.09,WSW,244,0.0,3.0,69,0.00,,,0.00,meteohub,2013-08-29 06:04:00,
2013-08-29 02:09:00,71.4,58.1,30.09,WSW,244,0.0,3.0,69,0.00,,,0.00,meteohub,2013-08-29 06:09:00,
2013-08-29 02:14:00,71.4,58.6,30.09,WSW,244,0.0,3.0,70,0.00,,,0.00,meteohub,2013-08-29 06:14:00,
2013-08-29 02:19:00,71.4,58.6,30.09,SW,227,0.0,3.0,70,0.00,,,0.00,meteohub,2013-08-29 06:19:00,
2013-08-29 02:24:00,71.4,59.0,30.09,SW,214,2.0,3.0,71,0.00,,,0.00,meteohub,2013-08-29 06:24:00,
2013-08-29 02:29:00,71.4,59.0,30.09,SW,230,0.0,3.0,71,0.00,,,0.00,meteohub,2013-08-29 06:29:00,
2013-08-29 02:34:00,71.4,59.0,30.09,SW,230,0.0,3.0,71,0.00,,,0.00,meteohub,2013-08-29 06:34:00,
2013-08-29 02:39:00,71.4,59.0,30.09,SW,230,0.0,3.0,71,0.00,,,0.00,meteohub,2013-08-29 06:39:00,
2013-08-29 02:44:00,71.4,59.0,30.09,SW,230,0.0,3.0,71,0.00,,,0.00,meteohub,2013-08-29 06:44:00,
2013-08-29 02:49:00,71.2,58.8,30.09,SW,230,0.0,0.0,71,0.00,,,0.00,meteohub,2013-08-29 06:49:00,
2013-08-29 02:54:00,71.2,59.4,30.09,SW,230,0.0,0.0,72,0.00,,,0.00,meteohub,2013-08-29 06:54:00,
2013-08-29 02:59:00,71.2,59.4,30.09,SW,230,0.0,0.0,72,0.00,,,0.00,meteohub,2013-08-29 06:59:00,
2013-08-29 03:04:00,71.2,59.4,30.09,WSW,250,0.0,0.0,72,0.00,,,0.00,meteohub,2013-08-29 07:04:00,
2013-08-29 03:09:00,71.2,59.4,30.09,WSW,245,4.0,0.0,72,0.00,,,0.00,meteohub,2013-08-29 07:09:00,
2013-08-29 03:14:00,71.2,59.4,30.09,WSW,245,0.0,0.0,72,0.00,,,0.00,meteohub,2013-08-29 07:14:00,
2013-08-29 03:19:00,71.2,59.4,30.09,SSW,211,0.0,0.0,72,0.00,,,0.00,meteohub,2013-08-29 07:19:00,
2013-08-29 03:24:00,71.2,59.7,30.09,SW,234,0.0,0.0,73,0.00,,,0.00,meteohub,2013-08-29 07:24:00,
2013-08-29 03:29:00,71.2,59.7,30.09,SW,234,0.0,0.0,73,0.00,,,0.00,meteohub,2013-08-29 07:29:00,
2013-08-29 03:34:00,71.2,59.7,30.09,WSW,249,0.0,3.0,73,0.00,,,0.00,meteohub,2013-08-29 07:34:00,
2013-08-29 03:39:00,71.1,59.5,30.09,WSW,249,0.0,3.0,73,0.00,,,0.00,meteohub,2013-08-29 07:39:00,
2013-08-29 03:44:00,71.1,59.5,30.09,WSW,249,0.0,3.0,73,0.00,,,0.00,meteohub,2013-08-29 07:44:00,
2013-08-29 03:49:00,71.1,59.5,30.09,WSW,249,0.0,3.0,73,0.00,,,0.00,meteohub,2013-08-29 07:49:00,
2013-08-29 03:54:00,71.1,59.5,30.09,WSW,245,2.0,3.0,73,0.00,,,0.00,meteohub,2013-08-29 07:54:00,
2013-08-29 03:59:00,71.1,59.5,30.09,SW,233,0.0,3.0,73,0.00,,,0.00,meteohub,2013-08-29 07:59:00,
2013-08-29 04:04:00,71.1,59.9,30.09,SW,233,0.0,3.0,74,0.00,,,0.00,meteohub,2013-08-29 08:04:00,
2013-08-29 04:09:00,70.9,59.7,30.09,SW,233,2.0,3.0,74,0.00,,,0.00,meteohub,2013-08-29 08:09:00,
2013-08-29 04:14:00,70.9,59.7,30.06,SW,235,0.0,3.0,74,0.00,,,0.00,meteohub,2013-08-29 08:14:00,
2013-08-29 04:19:00,70.9,59.7,30.06,SW,235,0.0,3.0,74,0.00,,,0.00,meteohub,2013-08-29 08:19:00,
2013-08-29 04:24:00,70.9,59.7,30.06,SW,236,0.0,3.0,74,0.00,,,0.00,meteohub,2013-08-29 08:24:00,
2013-08-29 04:29:00,70.9,60.3,30.06,SW,227,2.0,3.0,75,0.00,,,0.00,meteohub,2013-08-29 08:29:00,
2013-08-29 04:34:00,70.9,60.3,30.06,WSW,251,0.0,3.0,75,0.00,,,0.00,meteohub,2013-08-29 08:34:00,
2013-08-29 04:39:00,70.9,60.3,30.06,WSW,250,3.0,3.0,75,0.00,,,0.00,meteohub,2013-08-29 08:39:00,
2013-08-29 04:44:00,70.9,60.3,30.06,WSW,250,0.0,3.0,75,0.00,,,0.00,meteohub,2013-08-29 08:44:00,
2013-08-29 04:49:00,70.9,60.3,30.06,WSW,249,0.0,3.0,75,0.00,,,0.00,meteohub,2013-08-29 08:49:00,
2013-08-29 04:54:00,70.9,60.3,30.06,WSW,254,0.0,3.0,75,0.00,,,0.00,meteohub,2013-08-29 08:54:00,
2013-08-29 04:59:00,70.7,60.1,30.06,WSW,245,0.0,2.0,75,0.00,,,0.00,meteohub,2013-08-29 08:59:00,
2013-08-29 05:04:00,70.7,60.1,30.06,WSW,257,0.0,2.0,75,0.00,,,0.00,meteohub,2013-08-29 09:04:00,
2013-08-29 05:09:00,70.7,60.1,30.06,WSW,257,0.0,2.0,75,0.00,,,0.00,meteohub,2013-08-29 09:09:00,
2013-08-29 05:14:00,70.7,60.4,30.09,WSW,242,0.0,2.0,76,0.00,,,0.00,meteohub,2013-08-29 09:14:00,
2013-08-29 05:19:00,70.7,60.4,30.09,WSW,242,0.0,2.0,76,0.00,,,0.00,meteohub,2013-08-29 09:19:00,
2013-08-29 05:24:00,70.7,60.4,30.09,WSW,242,0.0,2.0,76,0.00,,,0.00,meteohub,2013-08-29 09:24:00,
2013-08-29 05:29:00,70.5,60.3,30.09,WSW,242,2.0,2.0,76,0.00,,,0.00,meteohub,2013-08-29 09:29:00,
2013-08-29 05:34:00,70.5,60.3,30.09,WSW,240,0.0,2.0,76,0.00,,,0.00,meteohub,2013-08-29 09:34:00,
2013-08-29 05:39:00,70.5,60.3,30.09,WSW,243,4.0,4.0,76,0.00,,,0.00,meteohub,2013-08-29 09:39:00,
2013-08-29 05:44:00,70.5,60.3,30.09,WSW,250,4.0,4.0,76,0.00,,,0.00,meteohub,2013-08-29 09:44:00,
2013-08-29 05:50:00,70.7,60.4,30.09,WSW,245,4.0,4.0,76,0.00,,,0.00,meteohub,2013-08-29 09:50:00,
2013-08-29 05:55:00,70.7,60.4,30.09,West,261,4.0,4.0,76,0.00,,,0.00,meteohub,2013-08-29 09:55:00,
2013-08-29 06:00:00,70.7,60.8,30.09,WSW,247,3.0,4.0,77,0.00,,,0.00,meteohub,2013-08-29 10:00:00,
2013-08-29 06:05:00,70.7,60.4,30.09,WSW,242,0.0,4.0,76,0.00,,,0.00,meteohub,2013-08-29 10:05:00,
2013-08-29 06:10:00,70.7,60.4,30.09,WSW,244,0.0,4.0,76,0.00,,,0.00,meteohub,2013-08-29 10:10:00,
2013-08-29 06:15:00,70.7,60.4,30.09,WSW,244,0.0,4.0,76,0.00,,,0.00,meteohub,2013-08-29 10:15:00,
2013-08-29 06:20:00,70.5,60.3,30.09,WSW,238,0.0,4.0,76,0.00,,,0.00,meteohub,2013-08-29 10:20:00,
2013-08-29 06:25:00,70.5,60.3,30.09,WSW,244,2.0,4.0,76,0.00,,,0.00,meteohub,2013-08-29 10:25:00,
2013-08-29 06:30:00,70.3,60.1,30.09,WSW,255,3.0,3.0,76,0.00,,,0.00,meteohub,2013-08-29 10:30:00,
2013-08-29 06:35:00,70.3,60.1,30.09,WSW,237,3.0,3.0,76,0.00,,,0.00,meteohub,2013-08-29 10:35:00,
2013-08-29 06:40:00,70.3,60.1,30.09,WSW,247,3.0,3.0,76,0.00,,,0.00,meteohub,2013-08-29 10:40:00,
2013-08-29 06:45:00,70.2,59.9,30.09,WSW,245,4.0,4.0,76,0.00,,,0.00,meteohub,2013-08-29 10:45:00,
2013-08-29 06:50:00,70.2,59.9,30.09,WSW,241,2.0,3.0,76,0.00,,,0.00,meteohub,2013-08-29 10:50:00,
2013-08-29 06:55:00,70.2,60.3,30.09,WSW,257,0.0,3.0,77,0.00,,,0.00,meteohub,2013-08-29 10:55:00,
2013-08-29 07:00:00,70.2,60.3,30.09,WSW,245,0.0,3.0,77,0.00,,,0.00,meteohub,2013-08-29 11:00:00,
2013-08-29 07:05:00,70.2,60.3,30.09,WSW,240,3.0,3.0,77,0.00,,,0.00,meteohub,2013-08-29 11:05:00,
2013-08-29 07:10:00,70.2,60.3,30.09,WSW,244,3.0,3.0,77,0.00,,,0.00,meteohub,2013-08-29 11:10:00,
2013-08-29 07:15:00,70.2,60.3,30.09,WSW,245,3.0,3.0,77,0.00,,,0.00,meteohub,2013-08-29 11:15:00,
2013-08-29 07:20:00,70.2,60.3,30.09,WSW,245,3.0,5.0,77,0.00,,,0.00,meteohub,2013-08-29 11:20:00,
2013-08-29 07:25:00,70.2,60.3,30.09,WSW,251,0.0,5.0,77,0.00,,,0.00,meteohub,2013-08-29 11:25:00,
2013-08-29 07:30:00,70.2,60.6,30.09,WSW,251,0.0,5.0,78,0.00,,,0.00,meteohub,2013-08-29 11:30:00,
2013-08-29 07:35:00,70.2,60.6,30.09,West,273,3.0,5.0,78,0.00,,,0.00,meteohub,2013-08-29 11:35:00,
2013-08-29 07:40:00,70.2,60.6,30.09,SW,229,4.0,5.0,78,0.00,,,0.00,meteohub,2013-08-29 11:40:00,
2013-08-29 07:45:00,70.2,60.6,30.09,WSW,242,3.0,5.0,78,0.00,,,0.00,meteohub,2013-08-29 11:45:00,
2013-08-29 07:50:00,70.2,61.2,30.09,WSW,242,0.0,5.0,79,0.00,,,0.00,meteohub,2013-08-29 11:50:00,
2013-08-29 07:55:00,70.3,61.3,30.09,SW,236,0.0,5.0,79,0.00,,,0.00,meteohub,2013-08-29 11:55:00,
2013-08-29 08:00:00,70.3,61.3,30.09,WSW,237,0.0,5.0,79,0.00,,,0.00,meteohub,2013-08-29 12:00:00,
2013-08-29 08:05:00,70.3,61.7,30.09,WSW,245,3.0,5.0,80,0.00,,,0.00,meteohub,2013-08-29 12:05:00,
2013-08-29 08:10:00,70.5,61.9,30.09,West,260,0.0,4.0,80,0.00,,,0.00,meteohub,2013-08-29 12:10:00,
2013-08-29 08:15:00,70.9,62.6,30.09,West,260,0.0,4.0,81,0.00,,,0.00,meteohub,2013-08-29 12:15:00,
2013-08-29 08:21:00,71.1,62.8,30.09,SW,219,3.0,4.0,81,0.00,,,0.00,meteohub,2013-08-29 12:21:00,
2013-08-29 08:26:00,71.4,63.1,30.09,WSW,255,4.0,4.0,81,0.00,,,0.00,meteohub,2013-08-29 12:26:00,
2013-08-29 08:31:00,71.6,63.0,30.12,WSW,244,0.0,4.0,80,0.00,,,0.00,meteohub,2013-08-29 12:31:00,
2013-08-29 08:36:00,71.8,63.0,30.12,WSW,247,4.0,4.0,80,0.00,,,0.00,meteohub,2013-08-29 12:36:00,
2013-08-29 08:41:00,72.1,63.3,30.12,WSW,246,2.0,4.0,80,0.00,,,0.00,meteohub,2013-08-29 12:41:00,
2013-08-29 08:46:00,72.5,63.3,30.12,WSW,256,4.0,4.0,79,0.00,,,0.00,meteohub,2013-08-29 12:46:00,
2013-08-29 08:51:00,72.7,63.1,30.12,SSW,199,3.0,4.0,78,0.00,,,0.00,meteohub,2013-08-29 12:51:00,
2013-08-29 08:56:00,73.0,63.1,30.12,WSW,243,4.0,4.0,77,0.00,,,0.00,meteohub,2013-08-29 12:56:00,
2013-08-29 09:01:00,73.2,62.8,30.12,WNW,290,5.0,5.0,76,0.00,,,0.00,meteohub,2013-08-29 13:01:00,
2013-08-29 09:06:00,73.6,62.8,30.12,West,261,3.0,5.0,75,0.00,,,0.00,meteohub,2013-08-29 13:06:00,
2013-08-29 09:11:00,73.9,62.2,30.12,WNW,294,3.0,5.0,73,0.00,,,0.00,meteohub,2013-08-29 13:11:00,
2013-08-29 09:16:00,74.3,62.2,30.12,West,267,0.0,5.0,72,0.00,,,0.00,meteohub,2013-08-29 13:16:00,
2013-08-29 09:21:00,74.5,61.9,30.12,West,268,2.0,5.0,71,0.00,,,0.00,meteohub,2013-08-29 13:21:00,
2013-08-29 09:26:00,74.8,61.0,30.12,WSW,249,3.0,5.0,68,0.00,,,0.00,meteohub,2013-08-29 13:26:00,
2013-08-29 09:31:00,75.2,59.9,30.12,NW,316,8.0,8.0,65,0.00,,,0.00,meteohub,2013-08-29 13:31:00,
2013-08-29 09:36:00,75.4,57.6,30.12,North,357,0.0,5.0,60,0.00,,,0.00,meteohub,2013-08-29 13:36:00,
2013-08-29 09:41:00,75.7,55.8,30.12,NNW,344,3.0,8.0,56,0.00,,,0.00,meteohub,2013-08-29 13:41:00,
2013-08-29 09:46:00,75.9,55.4,30.12,NW,326,4.0,8.0,55,0.00,,,0.00,meteohub,2013-08-29 13:46:00,
2013-08-29 09:51:00,76.3,55.2,30.12,West,273,3.0,8.0,54,0.00,,,0.00,meteohub,2013-08-29 13:51:00,
2013-08-29 09:56:00,76.5,54.7,30.09,NW,320,5.0,8.0,53,0.00,,,0.00,meteohub,2013-08-29 13:56:00,
2013-08-29 10:01:00,76.8,53.8,30.09,WSW,258,3.0,8.0,51,0.00,,,0.00,meteohub,2013-08-29 14:01:00,
2013-08-29 10:06:00,77.4,53.1,30.09,West,265,3.0,8.0,49,0.00,,,0.00,meteohub,2013-08-29 14:06:00,
2013-08-29 10:11:00,77.9,53.6,30.12,West,272,3.0,8.0,49,0.00,,,0.00,meteohub,2013-08-29 14:11:00,
2013-08-29 10:16:00,78.6,52.9,30.12,West,276,4.0,8.0,47,0.00,,,0.00,meteohub,2013-08-29 14:16:00,
2013-08-29 10:21:00,79.2,52.7,30.12,WSW,251,2.0,8.0,46,0.00,,,0.00,meteohub,2013-08-29 14:21:00,
2013-08-29 10:26:00,79.5,50.2,30.12,West,272,3.0,8.0,42,0.00,,,0.00,meteohub,2013-08-29 14:26:00,
2013-08-29 10:31:00,79.9,50.5,30.12,West,277,3.0,8.0,42,0.00,,,0.00,meteohub,2013-08-29 14:31:00,
2013-08-29 10:36:00,80.4,50.2,30.12,West,279,3.0,8.0,41,0.00,,,0.00,meteohub,2013-08-29 14:36:00,
2013-08-29 10:41:00,80.8,49.8,30.12,WSW,256,0.0,8.0,40,0.00,,,0.00,meteohub,2013-08-29 14:41:00,
2013-08-29 10:46:00,81.0,49.1,30.12,WNW,303,4.0,8.0,39,0.00,,,0.00,meteohub,2013-08-29 14:46:00,
2013-08-29 10:51:00,81.5,49.6,30.12,NW,313,8.0,8.0,39,0.00,,,0.00,meteohub,2013-08-29 14:51:00,
2013-08-29 10:56:00,81.7,48.9,30.12,SW,235,6.0,8.0,38,0.00,,,0.00,meteohub,2013-08-29 14:56:00,
2013-08-29 11:01:00,81.9,48.2,30.12,West,277,5.0,8.0,37,0.00,,,0.00,meteohub,2013-08-29 15:01:00,
2013-08-29 11:06:00,81.9,48.2,30.12,WNW,300,7.0,8.0,37,0.00,,,0.00,meteohub,2013-08-29 15:06:00,
2013-08-29 11:11:00,82.0,48.4,30.12,East,100,3.0,10.0,37,0.00,,,0.00,meteohub,2013-08-29 15:11:00,
2013-08-29 11:16:00,82.8,49.1,30.12,SW,227,5.0,10.0,37,0.00,,,0.00,meteohub,2013-08-29 15:16:00,
2013-08-29 11:21:00,83.3,48.6,30.12,West,276,4.0,10.0,36,0.00,,,0.00,meteohub,2013-08-29 15:21:00,
2013-08-29 11:26:00,83.7,48.9,30.12,NNW,343,5.0,10.0,36,0.00,,,0.00,meteohub,2013-08-29 15:26:00,
2013-08-29 11:31:00,83.8,49.1,30.12,WSW,238,5.0,10.0,36,0.00,,,0.00,meteohub,2013-08-29 15:31:00,
2013-08-29 11:36:00,83.8,49.1,30.12,WNW,291,3.0,10.0,36,0.00,,,0.00,meteohub,2013-08-29 15:36:00,
2013-08-29 11:41:00,84.2,49.5,30.12,West,274,4.0,10.0,36,0.00,,,0.00,meteohub,2013-08-29 15:41:00,
2013-08-29 11:46:00,84.6,48.7,30.12,WNW,301,4.0,10.0,35,0.00,,,0.00,meteohub,2013-08-29 15:46:00,
2013-08-29 11:52:00,84.9,49.1,30.12,West,270,6.0,10.0,35,0.00,,,0.00,meteohub,2013-08-29 15:52:00,
2013-08-29 11:57:00,84.7,48.9,30.12,WSW,237,3.0,6.0,35,0.00,,,0.00,meteohub,2013-08-29 15:57:00,
2013-08-29 12:02:00,84.7,48.9,30.12,NW,322,3.0,6.0,35,0.00,,,0.00,meteohub,2013-08-29 16:02:00,
2013-08-29 12:07:00,84.9,50.0,30.12,NNW,345,3.0,6.0,36,0.00,,,0.00,meteohub,2013-08-29 16:07:00,
2013-08-29 12:12:00,85.3,49.5,30.12,NE,39,5.0,6.0,35,0.00,,,0.00,meteohub,2013-08-29 16:12:00,
2013-08-29 12:17:00,85.3,49.5,30.12,WSW,241,3.0,6.0,35,0.00,,,0.00,meteohub,2013-08-29 16:17:00,
2013-08-29 12:22:00,85.3,49.5,30.12,NW,305,4.0,6.0,35,0.00,,,0.00,meteohub,2013-08-29 16:22:00,
2013-08-29 12:27:00,85.8,49.8,30.12,SSW,208,5.0,6.0,35,0.00,,,0.00,meteohub,2013-08-29 16:27:00,
2013-08-29 12:32:00,86.2,50.2,30.12,North,357,5.0,6.0,35,0.00,,,0.00,meteohub,2013-08-29 16:32:00,
2013-08-29 12:37:00,86.4,50.4,30.12,West,268,4.0,6.0,35,0.00,,,0.00,meteohub,2013-08-29 16:37:00,
2013-08-29 12:42:00,86.5,50.5,30.09,WSW,250,6.0,6.0,35,0.00,,,0.00,meteohub,2013-08-29 16:42:00,
2013-08-29 12:47:00,86.7,50.7,30.09,NW,305,5.0,8.0,35,0.00,,,0.00,meteohub,2013-08-29 16:47:00,
2013-08-29 12:52:00,86.7,50.7,30.09,West,272,4.0,8.0,35,0.00,,,0.00,meteohub,2013-08-29 16:52:00,
2013-08-29 12:57:00,86.9,50.9,30.09,West,270,5.0,8.0,35,0.00,,,0.00,meteohub,2013-08-29 16:57:00,
2013-08-29 13:02:00,87.1,50.9,30.09,West,280,3.0,8.0,35,0.00,,,0.00,meteohub,2013-08-29 17:02:00,
2013-08-29 13:07:00,87.6,51.4,30.09,WNW,294,3.0,8.0,35,0.00,,,0.00,meteohub,2013-08-29 17:07:00,
2013-08-29 13:12:00,88.2,52.0,30.09,WSW,249,3.0,8.0,35,0.00,,,0.00,meteohub,2013-08-29 17:12:00,
2013-08-29 13:17:00,88.3,51.1,30.09,NE,50,4.0,8.0,34,0.00,,,0.00,meteohub,2013-08-29 17:17:00,
2013-08-29 13:22:00,88.5,51.3,30.09,NNE,31,3.0,8.0,34,0.00,,,0.00,meteohub,2013-08-29 17:22:00,
2013-08-29 13:27:00,88.2,50.9,30.09,NNE,27,5.0,8.0,34,0.00,,,0.00,meteohub,2013-08-29 17:27:00,
2013-08-29 13:32:00,88.2,50.9,30.09,ESE,107,3.0,8.0,34,0.00,,,0.00,meteohub,2013-08-29 17:32:00,
2013-08-29 13:37:00,88.5,51.3,30.09,South,185,2.0,8.0,34,0.00,,,0.00,meteohub,2013-08-29 17:37:00,
2013-08-29 13:42:00,88.7,51.4,30.09,WNW,286,4.0,8.0,34,0.00,,,0.00,meteohub,2013-08-29 17:42:00,
2013-08-29 13:47:00,88.5,51.3,30.09,NW,324,3.0,8.0,34,0.00,,,0.00,meteohub,2013-08-29 17:47:00,
2013-08-29 13:52:00,88.9,51.6,30.09,West,263,3.0,8.0,34,0.00,,,0.00,meteohub,2013-08-29 17:52:00,
2013-08-29 13:57:00,89.2,51.8,30.09,WNW,287,6.0,8.0,34,0.00,,,0.00,meteohub,2013-08-29 17:57:00,
2013-08-29 14:02:00,89.4,52.0,30.09,West,273,6.0,8.0,34,0.00,,,0.00,meteohub,2013-08-29 18:02:00,
2013-08-29 14:07:00,89.4,52.0,30.09,WSW,258,3.0,8.0,34,0.00,,,0.00,meteohub,2013-08-29 18:07:00,
2013-08-29 14:12:00,89.4,52.0,30.09,West,269,4.0,8.0,34,0.00,,,0.00,meteohub,2013-08-29 18:12:00,
2013-08-29 14:17:00,89.6,52.2,30.09,NW,314,4.0,8.0,34,0.00,,,0.00,meteohub,2013-08-29 18:17:00,
2013-08-29 14:22:00,89.6,52.2,30.09,WSW,256,3.0,8.0,34,0.00,,,0.00,meteohub,2013-08-29 18:22:00,
2013-08-29 14:27:00,89.6,52.2,30.09,NW,324,4.0,9.0,34,0.00,,,0.00,meteohub,2013-08-29 18:27:00,
2013-08-29 14:32:00,89.8,52.3,30.09,NE,37,3.0,9.0,34,0.00,,,0.00,meteohub,2013-08-29 18:32:00,
2013-08-29 14:37:00,89.8,52.3,30.09,SW,214,4.0,9.0,34,0.00,,,0.00,meteohub,2013-08-29 18:37:00,
2013-08-29 14:42:00,90.1,52.7,30.09,WNW,299,3.0,9.0,34,0.00,,,0.00,meteohub,2013-08-29 18:42:00,
2013-08-29 14:48:00,90.3,52.9,30.09,NNW,334,4.0,9.0,34,0.00,,,0.00,meteohub,2013-08-29 18:48:00,
2013-08-29 14:53:00,90.1,52.7,30.09,WSW,254,5.0,9.0,34,0.00,,,0.00,meteohub,2013-08-29 18:53:00,
2013-08-29 14:58:00,90.5,52.9,30.09,NNW,346,0.0,9.0,34,0.00,,,0.00,meteohub,2013-08-29 18:58:00,
2013-08-29 15:03:00,90.5,52.9,30.09,SW,226,5.0,9.0,34,0.00,,,0.00,meteohub,2013-08-29 19:03:00,
2013-08-29 15:08:00,90.1,52.7,30.09,West,271,5.0,9.0,34,0.00,,,0.00,meteohub,2013-08-29 19:08:00,
2013-08-29 15:13:00,89.8,52.3,30.06,South,177,4.0,9.0,34,0.00,,,0.00,meteohub,2013-08-29 19:13:00,
2013-08-29 15:18:00,90.0,52.5,30.06,WNW,299,4.0,13.0,34,0.00,,,0.00,meteohub,2013-08-29 19:18:00,
2013-08-29 15:23:00,90.1,52.7,30.06,WSW,249,5.0,13.0,34,0.00,,,0.00,meteohub,2013-08-29 19:23:00,
2013-08-29 15:28:00,90.3,52.9,30.06,WSW,255,5.0,13.0,34,0.00,,,0.00,meteohub,2013-08-29 19:28:00,
2013-08-29 15:33:00,90.3,52.9,30.06,WSW,258,3.0,13.0,34,0.00,,,0.00,meteohub,2013-08-29 19:33:00,
2013-08-29 15:38:00,90.7,53.1,30.06,NW,324,2.0,13.0,34,0.00,,,0.00,meteohub,2013-08-29 19:38:00,
2013-08-29 15:43:00,90.5,52.9,30.06,WSW,241,4.0,13.0,34,0.00,,,0.00,meteohub,2013-08-29 19:43:00,
2013-08-29 15:48:00,90.5,52.9,30.06,SSW,192,3.0,13.0,34,0.00,,,0.00,meteohub,2013-08-29 19:48:00,
2013-08-29 15:53:00,91.0,53.4,30.06,South,178,3.0,13.0,34,0.00,,,0.00,meteohub,2013-08-29 19:53:00,
2013-08-29 15:58:00,91.0,53.4,30.06,WSW,250,4.0,13.0,34,0.00,,,0.00,meteohub,2013-08-29 19:58:00,
2013-08-29 16:03:00,90.7,53.1,30.06,WSW,241,0.0,8.0,34,0.00,,,0.00,meteohub,2013-08-29 20:03:00,
2013-08-29 16:08:00,90.7,53.1,30.06,North,353,3.0,8.0,34,0.00,,,0.00,meteohub,2013-08-29 20:08:00,
2013-08-29 16:13:00,90.3,52.9,30.06,WNW,298,4.0,8.0,34,0.00,,,0.00,meteohub,2013-08-29 20:13:00,
2013-08-29 16:18:00,89.6,52.2,30.06,NNW,327,3.0,8.0,34,0.00,,,0.00,meteohub,2013-08-29 20:18:00,
2013-08-29 16:23:00,89.6,52.2,30.06,South,182,3.0,8.0,34,0.00,,,0.00,meteohub,2013-08-29 20:23:00,
2013-08-29 16:28:00,90.3,52.9,30.06,West,272,4.0,8.0,34,0.00,,,0.00,meteohub,2013-08-29 20:28:00,
2013-08-29 16:33:00,90.1,52.7,30.06,WSW,245,3.0,8.0,34,0.00,,,0.00,meteohub,2013-08-29 20:33:00,
2013-08-29 16:38:00,89.6,52.2,30.06,WNW,298,0.0,8.0,34,0.00,,,0.00,meteohub,2013-08-29 20:38:00,
2013-08-29 16:43:00,88.7,51.4,30.06,NNW,331,4.0,8.0,34,0.00,,,0.00,meteohub,2013-08-29 20:43:00,
2013-08-29 16:48:00,88.2,50.9,30.06,NW,312,3.0,8.0,34,0.00,,,0.00,meteohub,2013-08-29 20:48:00,
2013-08-29 16:53:00,88.2,50.9,30.06,WSW,251,8.0,8.0,34,0.00,,,0.00,meteohub,2013-08-29 20:53:00,
2013-08-29 16:58:00,87.6,51.4,30.06,North,353,2.0,8.0,35,0.00,,,0.00,meteohub,2013-08-29 20:58:00,
2013-08-29 17:03:00,87.6,51.4,30.06,WNW,303,5.0,8.0,35,0.00,,,0.00,meteohub,2013-08-29 21:03:00,
2013-08-29 17:08:00,88.0,50.7,30.06,West,276,3.0,8.0,34,0.00,,,0.00,meteohub,2013-08-29 21:08:00,
2013-08-29 17:13:00,88.5,51.3,30.06,North,353,5.0,8.0,34,0.00,,,0.00,meteohub,2013-08-29 21:13:00,
2013-08-29 17:18:00,88.7,51.4,30.06,WNW,293,4.0,8.0,34,0.00,,,0.00,meteohub,2013-08-29 21:18:00,
2013-08-29 17:23:00,88.5,51.3,30.06,West,278,3.0,8.0,34,0.00,,,0.00,meteohub,2013-08-29 21:23:00,
2013-08-29 17:28:00,88.5,51.3,30.06,WSW,252,4.0,8.0,34,0.00,,,0.00,meteohub,2013-08-29 21:28:00,
2013-08-29 17:34:00,88.3,51.1,30.06,WNW,294,3.0,8.0,34,0.00,,,0.00,meteohub,2013-08-29 21:34:00,
2013-08-29 17:39:00,88.2,50.9,30.06,WSW,251,5.0,8.0,34,0.00,,,0.00,meteohub,2013-08-29 21:39:00,
2013-08-29 17:43:00,88.0,50.7,30.06,NW,308,5.0,8.0,34,0.00,,,0.00,meteohub,2013-08-29 21:43:00,
2013-08-29 17:49:00,87.8,50.7,30.06,WNW,297,4.0,8.0,34,0.00,,,0.00,meteohub,2013-08-29 21:49:00,
2013-08-29 17:54:00,87.6,51.4,30.06,WSW,253,3.0,8.0,35,0.00,,,0.00,meteohub,2013-08-29 21:54:00,
2013-08-29 17:59:00,87.6,51.4,30.06,SW,234,5.0,8.0,35,0.00,,,0.00,meteohub,2013-08-29 21:59:00,
2013-08-29 18:04:00,87.8,50.7,30.06,NNW,345,3.0,8.0,34,0.00,,,0.00,meteohub,2013-08-29 22:04:00,
2013-08-29 18:09:00,88.2,50.9,30.06,WSW,244,4.0,8.0,34,0.00,,,0.00,meteohub,2013-08-29 22:09:00,
2013-08-29 18:14:00,88.3,51.1,30.03,West,275,3.0,8.0,34,0.00,,,0.00,meteohub,2013-08-29 22:14:00,
2013-08-29 18:19:00,88.2,50.9,30.03,WNW,296,2.0,6.0,34,0.00,,,0.00,meteohub,2013-08-29 22:19:00,
2013-08-29 18:24:00,87.8,50.7,30.03,WNW,287,3.0,6.0,34,0.00,,,0.00,meteohub,2013-08-29 22:24:00,
2013-08-29 18:29:00,87.4,51.3,30.03,West,268,0.0,6.0,35,0.00,,,0.00,meteohub,2013-08-29 22:29:00,
2013-08-29 18:34:00,86.9,50.9,30.03,WSW,248,3.0,6.0,35,0.00,,,0.00,meteohub,2013-08-29 22:34:00,
2013-08-29 18:39:00,86.5,50.5,30.03,NNW,346,3.0,6.0,35,0.00,,,0.00,meteohub,2013-08-29 22:39:00,
2013-08-29 18:44:00,86.2,50.2,30.03,WNW,301,0.0,6.0,35,0.00,,,0.00,meteohub,2013-08-29 22:44:00,
2013-08-29 18:49:00,85.8,49.8,30.03,WNW,287,0.0,6.0,35,0.00,,,0.00,meteohub,2013-08-29 22:49:00,
2013-08-29 18:54:00,85.3,49.5,30.03,NNW,341,3.0,6.0,35,0.00,,,0.00,meteohub,2013-08-29 22:54:00,
2013-08-29 18:59:00,85.1,49.3,30.03,North,11,4.0,6.0,35,0.00,,,0.00,meteohub,2013-08-29 22:59:00,
2013-08-29 19:04:00,84.9,49.1,30.03,West,274,4.0,6.0,35,0.00,,,0.00,meteohub,2013-08-29 23:04:00,
2013-08-29 19:09:00,84.7,48.9,30.03,West,261,2.0,6.0,35,0.00,,,0.00,meteohub,2013-08-29 23:09:00,
2013-08-29 19:14:00,84.6,48.7,30.03,West,273,0.0,6.0,35,0.00,,,0.00,meteohub,2013-08-29 23:14:00,
2013-08-29 19:19:00,84.4,48.7,30.03,WNW,289,3.0,6.0,35,0.00,,,0.00,meteohub,2013-08-29 23:19:00,
2013-08-29 19:24:00,84.2,49.5,30.03,WSW,248,2.0,6.0,36,0.00,,,0.00,meteohub,2013-08-29 23:24:00,
2013-08-29 19:29:00,84.0,49.3,30.03,SW,236,3.0,6.0,36,0.00,,,0.00,meteohub,2013-08-29 23:29:00,
2013-08-29 19:34:00,83.8,49.1,30.03,WNW,290,4.0,6.0,36,0.00,,,0.00,meteohub,2013-08-29 23:34:00,
2013-08-29 19:39:00,83.7,48.9,30.03,WNW,302,0.0,6.0,36,0.00,,,0.00,meteohub,2013-08-29 23:39:00,
2013-08-29 19:44:00,83.3,48.6,30.03,NNW,342,3.0,6.0,36,0.00,,,0.00,meteohub,2013-08-29 23:44:00,
2013-08-29 19:49:00,83.1,48.6,30.03,SSW,199,3.0,6.0,36,0.00,,,0.00,meteohub,2013-08-29 23:49:00,
2013-08-29 19:54:00,82.9,48.4,30.03,WSW,258,2.0,6.0,36,0.00,,,0.00,meteohub,2013-08-29 23:54:00,
2013-08-29 19:59:00,82.4,48.7,30.06,NW,306,2.0,6.0,37,0.00,,,0.00,meteohub,2013-08-29 23:59:00,
2013-08-29 20:04:00,82.2,48.6,30.06,West,262,0.0,5.0,37,0.00,,,0.00,meteohub,2013-08-30 00:04:00,
2013-08-29 20:09:00,81.9,48.2,30.06,West,270,4.0,5.0,37,0.00,,,0.00,meteohub,2013-08-30 00:09:00,
2013-08-29 20:14:00,81.7,48.0,30.06,West,264,0.0,5.0,37,0.00,,,0.00,meteohub,2013-08-30 00:14:00,
2013-08-29 20:19:00,81.5,48.7,30.06,NW,315,0.0,5.0,38,0.00,,,0.00,meteohub,2013-08-30 00:19:00,
2013-08-29 20:24:00,81.1,48.6,30.06,NW,315,0.0,5.0,38,0.00,,,0.00,meteohub,2013-08-30 00:24:00,
2013-08-29 20:29:00,80.8,48.2,30.06,NW,315,0.0,5.0,38,0.00,,,0.00,meteohub,2013-08-30 00:29:00,
2013-08-29 20:34:00,80.4,48.7,30.06,NW,315,0.0,5.0,39,0.00,,,0.00,meteohub,2013-08-30 00:34:00,
2013-08-29 20:39:00,80.2,48.6,30.06,NNW,345,0.0,5.0,39,0.00,,,0.00,meteohub,2013-08-30 00:39:00,
2013-08-29 20:44:00,79.9,48.2,30.06,NNW,345,0.0,5.0,39,0.00,,,0.00,meteohub,2013-08-30 00:44:00,
2013-08-29 20:49:00,79.7,48.9,30.06,NNW,345,0.0,5.0,40,0.00,,,0.00,meteohub,2013-08-30 00:49:00,
2013-08-29 20:54:00,79.3,48.6,30.06,NNW,345,0.0,3.0,40,0.00,,,0.00,meteohub,2013-08-30 00:54:00,
2013-08-29 21:00:00,79.2,49.1,30.06,NNW,345,0.0,3.0,41,0.00,,,0.00,meteohub,2013-08-30 01:00:00,
2013-08-29 21:05:00,79.0,48.9,30.06,NNW,345,0.0,3.0,41,0.00,,,0.00,meteohub,2013-08-30 01:05:00,
2013-08-29 21:10:00,78.8,49.6,30.06,NNW,345,0.0,3.0,42,0.00,,,0.00,meteohub,2013-08-30 01:10:00,
2013-08-29 21:15:00,78.4,50.0,30.06,SSE,148,0.0,3.0,43,0.00,,,0.00,meteohub,2013-08-30 01:15:00,
2013-08-29 21:20:00,78.3,50.5,30.06,SSE,148,0.0,3.0,44,0.00,,,0.00,meteohub,2013-08-30 01:20:00,
2013-08-29 21:25:00,77.9,50.2,30.06,SSE,148,0.0,3.0,44,0.00,,,0.00,meteohub,2013-08-30 01:25:00,
2013-08-29 21:30:00,77.7,50.7,30.06,SSE,148,0.0,3.0,45,0.00,,,0.00,meteohub,2013-08-30 01:30:00,
2013-08-29 21:35:00,77.5,51.3,30.06,SSE,148,0.0,3.0,46,0.00,,,0.00,meteohub,2013-08-30 01:35:00,
2013-08-29 21:40:00,77.4,51.1,30.06,SSE,148,0.0,3.0,46,0.00,,,0.00,meteohub,2013-08-30 01:40:00,
2013-08-29 21:45:00,77.2,51.6,30.06,SSE,147,0.0,0.0,47,0.00,,,0.00,meteohub,2013-08-30 01:45:00,
2013-08-29 21:50:00,77.2,52.3,30.06,WSW,252,0.0,0.0,48,0.00,,,0.00,meteohub,2013-08-30 01:50:00,
2013-08-29 21:55:00,77.2,52.3,30.06,WSW,251,0.0,0.0,48,0.00,,,0.00,meteohub,2013-08-30 01:55:00,
2013-08-29 22:00:00,77.0,52.2,30.06,WSW,252,0.0,0.0,48,0.00,,,0.00,meteohub,2013-08-30 02:00:00,
2013-08-29 22:05:00,77.0,52.9,30.06,WSW,251,0.0,0.0,49,0.00,,,0.00,meteohub,2013-08-30 02:05:00,
2013-08-29 22:10:00,76.8,53.2,30.06,WSW,251,0.0,0.0,50,0.00,,,0.00,meteohub,2013-08-30 02:10:00,
2013-08-29 22:15:00,76.6,53.1,30.06,WSW,251,0.0,0.0,50,0.00,,,0.00,meteohub,2013-08-30 02:15:00,
2013-08-29 22:20:00,76.6,53.1,30.06,WSW,252,0.0,0.0,50,0.00,,,0.00,meteohub,2013-08-30 02:20:00,
2013-08-29 22:25:00,76.6,53.1,30.06,WSW,251,0.0,0.0,50,0.00,,,0.00,meteohub,2013-08-30 02:25:00,
2013-08-29 22:30:00,76.5,53.6,30.06,WSW,251,0.0,0.0,51,0.00,,,0.00,meteohub,2013-08-30 02:30:00,
2013-08-29 22:35:00,76.5,53.6,30.06,WSW,251,0.0,0.0,51,0.00,,,0.00,meteohub,2013-08-30 02:35:00,
2013-08-29 22:40:00,76.3,53.4,30.06,WSW,251,0.0,0.0,51,0.00,,,0.00,meteohub,2013-08-30 02:40:00,
2013-08-29 22:45:00,76.3,54.0,30.06,WSW,251,0.0,0.0,52,0.00,,,0.00,meteohub,2013-08-30 02:45:00,
2013-08-29 22:50:00,76.3,54.0,30.06,WSW,251,0.0,0.0,52,0.00,,,0.00,meteohub,2013-08-30 02:50:00,
2013-08-29 22:55:00,76.1,53.8,30.06,WSW,251,0.0,0.0,52,0.00,,,0.00,meteohub,2013-08-30 02:55:00,
2013-08-29 23:00:00,76.1,54.3,30.06,WSW,251,0.0,0.0,53,0.00,,,0.00,meteohub,2013-08-30 03:00:00,
2013-08-29 23:05:00,76.3,54.5,30.06,WSW,251,0.0,0.0,53,0.00,,,0.00,meteohub,2013-08-30 03:05:00,
2013-08-29 23:10:00,76.3,54.5,30.06,WSW,251,0.0,0.0,53,0.00,,,0.00,meteohub,2013-08-30 03:10:00,
2013-08-29 23:15:00,76.3,54.5,30.06,WSW,251,0.0,0.0,53,0.00,,,0.00,meteohub,2013-08-30 03:15:00,
2013-08-29 23:20:00,76.3,54.5,30.06,WSW,251,0.0,0.0,53,0.00,,,0.00,meteohub,2013-08-30 03:20:00,
2013-08-29 23:25:00,76.3,55.2,30.06,WSW,251,0.0,0.0,54,0.00,,,0.00,meteohub,2013-08-30 03:25:00,
2013-08-29 23:30:00,76.3,55.2,30.06,WSW,251,0.0,0.0,54,0.00,,,0.00,meteohub,2013-08-30 03:30:00,
2013-08-29 23:35:00,76.3,55.2,30.06,WSW,251,0.0,0.0,54,0.00,,,0.00,meteohub,2013-08-30 03:35:00,
2013-08-29 23:40:00,76.3,55.2,30.06,WSW,251,0.0,0.0,54,0.00,,,0.00,meteohub,2013-08-30 03:40:00,
2013-08-29 23:45:00,76.3,55.2,30.06,WSW,251,0.0,0.0,54,0.00,,,0.00,meteohub,2013-08-30 03:45:00,
2013-08-29 23:51:00,76.3,55.2,30.06,WSW,251,0.0,0.0,54,0.00,,,0.00,meteohub,2013-08-30 03:51:00,
2013-08-29 23:56:00,76.3,54.5,30.06,SW,226,0.0,0.0,53,0.00,,,0.00,meteohub,2013-08-30 03:56:00,